When you browse on this site, cookies collect data to enhance your experience and personalize the content and advertising you see.
Visit our Privacy Policy to learn more. By continuing to use the site, you agree to this use of cookies and data.
  • în România
  • Lista ţărilor
  • Pe 7 zile
  • Temperatura apei
  • Hartă satelitară
  • Meteo pe hartă
  • Widget-uri
  • user-avatar
    Intrare

    Meteo pe oră la Kopyryane

    Astăzi, 26 Martie, Marţi

    Timp Temperatura Precipitaţii Vânt Presiune Umiditate
    00:00 -3°C° 0 mm 2 m/s 731 mmHg 84%
    01:00 -3°C° 0 mm 2 m/s 731 mmHg 85%
    02:00 -3°C° 0 mm 2 m/s 731 mmHg 86%
    03:00 -3°C° 0 mm 2 m/s 730 mmHg 87%
    04:00 -3°C° 0 mm 2 m/s 730 mmHg 87%
    05:00 -4°C° 0 mm 2 m/s 730 mmHg 88%
    06:00 -3°C° 0 mm 2 m/s 730 mmHg 87%
    07:00 -2°C° 0 mm 2 m/s 730 mmHg 86%
    08:00 -1°C° 0 mm 2 m/s 730 mmHg 84%
    09:00 0°C° 0.2 mm 3 m/s 730 mmHg 82%
    10:00 +1°C° 0.2 mm 3 m/s 730 mmHg 79%
    11:00 +1°C° 0.2 mm 3 m/s 731 mmHg 77%
    12:00 0°C° 0.2 mm 4 m/s 731 mmHg 73%
    13:00 0°C° 0.2 mm 4 m/s 731 mmHg 69%
    14:00 0°C° 0.2 mm 4 m/s 731 mmHg 65%
    15:00 0°C° 0 mm 4 m/s 731 mmHg 67%
    16:00 0°C° 0 mm 3 m/s 732 mmHg 68%
    17:00 -1°C° 0 mm 3 m/s 732 mmHg 69%
    18:00 -2°C° 0 mm 2 m/s 732 mmHg 74%
    19:00 -3°C° 0 mm 2 m/s 733 mmHg 80%
    20:00 -4°C° 0 mm 2 m/s 733 mmHg 85%
    21:00 -4°C° 0 mm 2 m/s 734 mmHg 85%
    22:00 -4°C° 0 mm 2 m/s 734 mmHg 85%
    23:00 -5°C° 0 mm 2 m/s 734 mmHg 85%

    Mâine, 27 Martie, Miercuri

    Timp Temperatura Precipitaţii Vânt Presiune Umiditate
    00:00 -5°C° 0 mm 2 m/s 734 mmHg 84%
    01:00 -5°C° 0 mm 2 m/s 735 mmHg 84%
    02:00 -5°C° 0 mm 2 m/s 735 mmHg 83%
    03:00 -6°C° 0 mm 3 m/s 735 mmHg 84%
    04:00 -6°C° 0 mm 3 m/s 735 mmHg 85%
    05:00 -6°C° 0 mm 3 m/s 736 mmHg 85%
    06:00 -5°C° 0.1 mm 3 m/s 736 mmHg 83%
    07:00 -4°C° 0.1 mm 4 m/s 737 mmHg 80%
    08:00 -4°C° 0.1 mm 5 m/s 737 mmHg 78%
    09:00 -4°C° 0.1 mm 5 m/s 738 mmHg 74%
    10:00 -2°C° 0.1 mm 4 m/s 738 mmHg 70%
    11:00 -2°C° 0.1 mm 4 m/s 739 mmHg 66%
    12:00 -2°C° 0 mm 4 m/s 739 mmHg 65%
    13:00 -2°C° 0 mm 4 m/s 740 mmHg 64%
    14:00 -2°C° 0 mm 4 m/s 740 mmHg 63%
    15:00 -2°C° 0 mm 4 m/s 741 mmHg 64%
    16:00 -2°C° 0 mm 4 m/s 741 mmHg 65%
    17:00 -2°C° 0 mm 4 m/s 742 mmHg 66%
    18:00 -2°C° 0 mm 3 m/s 742 mmHg 70%
    19:00 -4°C° 0 mm 3 m/s 743 mmHg 74%
    20:00 -3°C° 0 mm 2 m/s 743 mmHg 78%
    21:00 -4°C° 0 mm 2 m/s 743 mmHg 80%
    22:00 -4°C° 0 mm 2 m/s 744 mmHg 82%
    23:00 -5°C° 0 mm 2 m/s 744 mmHg 83%

    Poimâine, 28 Martie, Joi

    Timp Temperatura Precipitaţii Vânt Presiune Umiditate
    00:00 -5°C° 0 mm 2 m/s 744 mmHg 83%
    01:00 -5°C° 0 mm 2 m/s 744 mmHg 84%
    02:00 -5°C° 0 mm 2 m/s 745 mmHg 84%
    03:00 -6°C° 0 mm 2 m/s 745 mmHg 84%
    04:00 -6°C° 0 mm 2 m/s 745 mmHg 85%
    05:00 -6°C° 0 mm 2 m/s 745 mmHg 86%
    06:00 -5°C° 0 mm 2 m/s 745 mmHg 80%
    07:00 -4°C° 0 mm 2 m/s 746 mmHg 73%
    08:00 -3°C° 0 mm 2 m/s 746 mmHg 67%
    09:00 -2°C° 0 mm 3 m/s 746 mmHg 62%
    10:00 0°C° 0 mm 3 m/s 746 mmHg 58%
    11:00 +1°C° 0 mm 3 m/s 746 mmHg 53%
    12:00 +1°C° 0 mm 3 m/s 745 mmHg 53%
    13:00 +2°C° 0 mm 3 m/s 745 mmHg 52%
    14:00 +3°C° 0 mm 3 m/s 745 mmHg 52%
    15:00 +2°C° 0 mm 3 m/s 745 mmHg 56%
    16:00 +3°C° 0 mm 2 m/s 744 mmHg 60%
    17:00 +3°C° 0 mm 2 m/s 744 mmHg 64%
    18:00 +2°C° 0 mm 2 m/s 744 mmHg 71%
    19:00 +1°C° 0 mm 2 m/s 744 mmHg 78%
    20:00 +1°C° 0 mm 2 m/s 743 mmHg 85%
    21:00 -1°C° 0 mm 3 m/s 743 mmHg 87%
    22:00 -1°C° 0 mm 3 m/s 742 mmHg 88%
    23:00 -1°C° 0 mm 3 m/s 742 mmHg 89%

    29 Martie, Vineri

    Timp Temperatura Precipitaţii Vânt Presiune Umiditate
    00:00 -1°C° 0.4 mm 3 m/s 741 mmHg 88%
    01:00 -1°C° 0.4 mm 4 m/s 741 mmHg 87%
    02:00 -1°C° 0.4 mm 4 m/s 740 mmHg 87%
    03:00 0°C° 0.1 mm 4 m/s 740 mmHg 87%
    04:00 0°C° 0.1 mm 4 m/s 739 mmHg 88%
    05:00 0°C° 0.1 mm 4 m/s 739 mmHg 88%
    06:00 0°C° 0 mm 4 m/s 739 mmHg 88%
    07:00 0°C° 0 mm 5 m/s 739 mmHg 87%
    08:00 0°C° 0 mm 5 m/s 739 mmHg 86%
    09:00 +1°C° 0 mm 5 m/s 739 mmHg 83%
    10:00 +1°C° 0 mm 5 m/s 739 mmHg 80%
    11:00 +2°C° 0 mm 5 m/s 740 mmHg 77%
    12:00 +3°C° 0 mm 5 m/s 740 mmHg 73%
    13:00 +5°C° 0 mm 5 m/s 740 mmHg 68%
    14:00 +6°C° 0 mm 5 m/s 740 mmHg 63%
    15:00 +6°C° 0 mm 4 m/s 739 mmHg 71%
    16:00 +5°C° 0 mm 3 m/s 739 mmHg 78%
    17:00 +5°C° 0 mm 2 m/s 739 mmHg 85%
    18:00 +4°C° 0 mm 2 m/s 739 mmHg 87%
    19:00 +3°C° 0 mm 2 m/s 739 mmHg 89%
    20:00 +3°C° 0 mm 2 m/s 738 mmHg 92%
    21:00 +3°C° 0 mm 2 m/s 738 mmHg 91%
    22:00 +2°C° 0 mm 3 m/s 738 mmHg 90%
    23:00 +2°C° 0 mm 3 m/s 737 mmHg 89%

    30 Martie, Sâmbătă

    Timp Temperatura Precipitaţii Vânt Presiune Umiditate
    00:00 +2°C° 0 mm 3 m/s 737 mmHg 90%
    01:00 +3°C° 0 mm 4 m/s 736 mmHg 91%
    02:00 +3°C° 0 mm 4 m/s 736 mmHg 92%
    03:00 +3°C° 0 mm 4 m/s 735 mmHg 91%
    04:00 +2°C° 0 mm 5 m/s 735 mmHg 91%
    05:00 +3°C° 0 mm 5 m/s 734 mmHg 91%
    06:00 +3°C° 0 mm 5 m/s 734 mmHg 88%
    07:00 +3°C° 0 mm 6 m/s 734 mmHg 85%
    08:00 +4°C° 0 mm 6 m/s 733 mmHg 83%
    09:00 +4°C° 0 mm 6 m/s 733 mmHg 79%
    10:00 +5°C° 0 mm 6 m/s 733 mmHg 76%
    11:00 +5°C° 0 mm 6 m/s 733 mmHg 73%
    12:00 +7°C° 0 mm 6 m/s 733 mmHg 70%
    13:00 +8°C° 0 mm 6 m/s 733 mmHg 67%
    14:00 +8°C° 0 mm 6 m/s 733 mmHg 64%
    15:00 +7°C° 0.1 mm 6 m/s 733 mmHg 67%
    16:00 +6°C° 0.1 mm 5 m/s 734 mmHg 70%
    17:00 +6°C° 0.1 mm 5 m/s 734 mmHg 72%
    18:00 +5°C° 0.1 mm 4 m/s 734 mmHg 75%
    19:00 +4°C° 0.1 mm 3 m/s 734 mmHg 78%
    20:00 +4°C° 0.1 mm 2 m/s 735 mmHg 80%
    21:00 +3°C° 0.2 mm 3 m/s 734 mmHg 82%
    22:00 +3°C° 0.2 mm 3 m/s 734 mmHg 84%
    23:00 +3°C° 0.2 mm 3 m/s 734 mmHg 85%

    31 Martie, Duminică

    Timp Temperatura Precipitaţii Vânt Presiune Umiditate
    00:00 +2°C° 0 mm 3 m/s 733 mmHg 85%
    01:00 +2°C° 0 mm 3 m/s 733 mmHg 84%
    02:00 0°C° 0 mm 4 m/s 732 mmHg 83%
    03:00 0°C° 0 mm 4 m/s 732 mmHg 83%
    04:00 0°C° 0 mm 4 m/s 731 mmHg 83%
    05:00 +1°C° 0 mm 3 m/s 731 mmHg 84%
    06:00 +1°C° 0.1 mm 4 m/s 731 mmHg 81%
    07:00 +1°C° 0.1 mm 4 m/s 730 mmHg 78%
    08:00 +1°C° 0.1 mm 4 m/s 730 mmHg 74%
    09:00 +2°C° 0.5 mm 5 m/s 731 mmHg 71%
    10:00 +2°C° 0.5 mm 5 m/s 731 mmHg 67%
    11:00 +2°C° 0.5 mm 6 m/s 731 mmHg 64%
    12:00 +2°C° 0.1 mm 6 m/s 732 mmHg 59%
    13:00 +2°C° 0.1 mm 6 m/s 732 mmHg 55%
    14:00 +2°C° 0.1 mm 6 m/s 733 mmHg 50%
    15:00 +2°C° 0 mm 5 m/s 733 mmHg 50%
    16:00 +1°C° 0 mm 5 m/s 734 mmHg 51%
    17:00 +1°C° 0 mm 4 m/s 734 mmHg 51%
    18:00 0°C° 0 mm 4 m/s 735 mmHg 57%
    19:00 -1°C° 0 mm 3 m/s 735 mmHg 63%
    20:00 -2°C° 0 mm 3 m/s 736 mmHg 70%
    21:00 -2°C° 0 mm 3 m/s 736 mmHg 71%
    22:00 -2°C° 0 mm 3 m/s 736 mmHg 73%
    23:00 -2°C° 0 mm 3 m/s 737 mmHg 75%
    Arată mai mult